Terminal Aerodrome Forecast
Issued by NWS

Home | Current Version | Previous Version | Text Only | Print | Product List | Glossary On
Versions: 1 2 3 4 5 6 7 8 9 10 11 12 13 14 15 16 17 18 19 20 21 22 23 24 25 26 27 28 29 30 31 32 33 34 35 36 37 38 39 40 41 42 43
000
FTAK31 PAFA 281542 AAE
TAFAOM
TAF AMD
PAOM 281542Z 2816/0112 25020G30KT 3SM -SN BR OVC012
      TEMPO 2816/2818 2SM -SN BLSN OVC010
     FM281800 27018KT P6SM -SHSN BKN025
     FM010000 27006KT P6SM BKN025=

USA.gov is the U.S. government's official web portal to all federal, state and local government web resources and services.